THY70G LTFM-EGLL

Flight info

Callsign THY70G
Flight time N/A
Altitude 36000
Route TUDBU1D/35L TUDBU Q26 ETUBA DCT NAVOD DCT INVED DCT BEGLA DCT DEXIT DCT INBED DCT BOMBI DCT ADKUV DCT BUB L608 LOGAN
Aircraft A21N/M-SDE2E3FGHIRWXY/LB1

Departure

Time N/A
Airport İstanbul Airport (LTFM)

Arrival

Time 2026-05-07 18:46
Airport London Heathrow Airport (EGLL)
Time Latitude Longitude Altitude Speed Heading
2026-05-07 17:37 50.09716 8.58172 36059 ft 436 kts 290°
2026-05-07 17:37 50.11913 8.49070 36050 ft 436 kts 290°
2026-05-07 17:38 50.14022 8.40298 36049 ft 436 kts 289°
2026-05-07 17:38 50.16143 8.31431 36052 ft 436 kts 290°
2026-05-07 17:39 50.18263 8.22528 36046 ft 435 kts 289°
2026-05-07 17:39 50.20358 8.13719 36044 ft 435 kts 289°
2026-05-07 17:40 50.22460 8.04843 36040 ft 435 kts 289°
2026-05-07 17:40 50.24551 7.95948 36043 ft 435 kts 289°
2026-05-07 17:41 50.26637 7.87067 36055 ft 435 kts 289°
2026-05-07 17:41 50.28702 7.78228 36056 ft 435 kts 289°
2026-05-07 17:42 50.30774 7.69277 36047 ft 435 kts 289°
2026-05-07 17:42 50.32835 7.60399 36047 ft 436 kts 289°
2026-05-07 17:43 50.34903 7.51463 36048 ft 436 kts 289°
2026-05-07 17:43 50.36961 7.42509 36053 ft 436 kts 289°
2026-05-07 17:44 50.39011 7.33551 36056 ft 437 kts 289°
2026-05-07 17:44 50.41043 7.24632 36054 ft 436 kts 289°
2026-05-07 17:45 50.43066 7.15715 36051 ft 437 kts 289°
2026-05-07 17:45 50.45111 7.06658 36048 ft 436 kts 289°
2026-05-07 17:46 50.47136 6.97656 36046 ft 436 kts 289°
2026-05-07 17:46 50.49141 6.88701 36047 ft 435 kts 289°
2026-05-07 17:47 50.51060 6.79742 36050 ft 435 kts 286°
2026-05-07 17:47 50.52754 6.70587 36055 ft 436 kts 285°
2026-05-07 17:48 50.54422 6.61456 36041 ft 436 kts 285°
2026-05-07 17:48 50.56082 6.52295 36046 ft 435 kts 285°
2026-05-07 17:49 50.57735 6.43131 36058 ft 435 kts 285°
2026-05-07 17:49 50.59396 6.33959 36058 ft 435 kts 285°
2026-05-07 17:50 50.61035 6.24868 36048 ft 435 kts 285°
2026-05-07 17:50 50.62664 6.15692 36053 ft 435 kts 285°
2026-05-07 17:51 50.64299 6.06516 36053 ft 434 kts 285°
2026-05-07 17:51 50.65934 5.97301 36059 ft 436 kts 285°
2026-05-07 17:52 50.67540 5.88157 36067 ft 434 kts 285°
2026-05-07 17:52 50.69144 5.78995 36060 ft 434 kts 285°
2026-05-07 17:53 50.70707 5.70010 36063 ft 435 kts 285°
2026-05-07 17:53 50.72302 5.60818 36065 ft 434 kts 284°
2026-05-07 17:54 50.73883 5.51662 36073 ft 434 kts 284°
2026-05-07 17:54 50.75464 5.42442 36075 ft 434 kts 284°
2026-05-07 17:55 50.77032 5.33234 36076 ft 433 kts 284°
2026-05-07 17:55 50.78591 5.24025 36079 ft 433 kts 284°
2026-05-07 17:56 50.80136 5.14888 36080 ft 433 kts 284°
2026-05-07 17:56 50.81680 5.05664 36080 ft 432 kts 284°
2026-05-07 17:57 50.82956 4.98023 36078 ft 432 kts 284°
2026-05-07 17:57 50.84749 4.87236 36079 ft 433 kts 284°
2026-05-07 17:58 50.86256 4.78096 36080 ft 432 kts 283°
2026-05-07 17:58 50.87826 4.68900 36070 ft 433 kts 289°
2026-05-07 17:59 50.90609 4.60395 36081 ft 435 kts 298°
2026-05-07 17:59 50.93548 4.52019 36081 ft 435 kts 297°
2026-05-07 18:00 50.96445 4.43586 36084 ft 434 kts 297°
2026-05-07 18:00 50.99317 4.35191 36082 ft 435 kts 297°
2026-05-07 18:01 51.02191 4.26744 36080 ft 435 kts 297°
2026-05-07 18:01 51.05057 4.18279 36078 ft 435 kts 297°
2026-05-07 18:02 51.09356 4.05543 36079 ft 435 kts 297°
2026-05-07 18:03 51.12204 3.97073 36083 ft 435 kts 296°
2026-05-07 18:03 51.15042 3.88595 36095 ft 435 kts 296°
2026-05-07 18:04 51.17888 3.80064 36093 ft 436 kts 296°
2026-05-07 18:04 51.20723 3.71517 36090 ft 436 kts 296°
2026-05-07 18:05 51.23555 3.62943 36089 ft 436 kts 296°
2026-05-07 18:05 51.26381 3.54363 36092 ft 436 kts 296°
2026-05-07 18:06 51.29187 3.45835 36089 ft 435 kts 296°
2026-05-07 18:06 51.32012 3.37298 36090 ft 434 kts 296°
2026-05-07 18:07 51.34819 3.28733 36089 ft 433 kts 296°
2026-05-07 18:07 51.37592 3.20201 36093 ft 433 kts 295°
2026-05-07 18:08 51.40354 3.11664 36091 ft 433 kts 294°
2026-05-07 18:08 51.42570 3.02739 36081 ft 431 kts 288°
2026-05-07 18:09 51.44668 2.93722 36087 ft 432 kts 288°
2026-05-07 18:09 51.46760 2.84684 36090 ft 432 kts 288°
2026-05-07 18:10 51.48852 2.75679 36086 ft 433 kts 289°
2026-05-07 18:10 51.50953 2.66629 36090 ft 432 kts 289°
2026-05-07 18:11 51.53049 2.57554 36089 ft 433 kts 288°
2026-05-07 18:11 51.55137 2.48479 36087 ft 433 kts 288°
2026-05-07 18:12 51.57206 2.39465 36060 ft 432 kts 288°
2026-05-07 18:12 51.58243 2.34932 35674 ft 431 kts 288°
2026-05-07 18:12 51.59274 2.30412 35103 ft 429 kts 288°
2026-05-07 18:12 51.60297 2.25910 34419 ft 429 kts 288°
2026-05-07 18:13 51.61324 2.21394 33704 ft 430 kts 288°
2026-05-07 18:13 51.62343 2.16891 33006 ft 430 kts 288°
2026-05-07 18:13 51.63362 2.12381 32331 ft 429 kts 288°
2026-05-07 18:13 51.64377 2.07883 31684 ft 427 kts 288°
2026-05-07 18:14 51.65387 2.03381 31050 ft 424 kts 288°
2026-05-07 18:14 51.66385 1.98928 30428 ft 422 kts 288°
2026-05-07 18:14 51.67378 1.94493 29807 ft 419 kts 288°
2026-05-07 18:14 51.68361 1.90080 29163 ft 416 kts 288°
2026-05-07 18:15 51.69319 1.85770 28549 ft 414 kts 288°
2026-05-07 18:15 51.70287 1.81415 27947 ft 410 kts 288°
2026-05-07 18:15 51.71244 1.77103 27336 ft 406 kts 288°
2026-05-07 18:15 51.72186 1.72833 26726 ft 403 kts 288°
2026-05-07 18:16 51.73126 1.68566 26108 ft 401 kts 288°
2026-05-07 18:16 51.74039 1.64331 25507 ft 398 kts 285°
2026-05-07 18:16 51.74458 1.61472 25116 ft 394 kts 277°
2026-05-07 18:16 51.74476 1.55657 24142 ft 391 kts 264°
2026-05-07 18:17 51.74179 1.51283 23287 ft 392 kts 262°
2026-05-07 18:17 51.73863 1.46928 22622 ft 389 kts 263°
2026-05-07 18:17 51.73568 1.42625 22010 ft 383 kts 263°
2026-05-07 18:17 51.73379 1.39805 21621 ft 380 kts 263°
2026-05-07 18:18 51.73096 1.35558 21031 ft 374 kts 263°
2026-05-07 18:18 51.72828 1.31492 20487 ft 368 kts 263°
2026-05-07 18:18 51.72560 1.27454 19968 ft 362 kts 263°
2026-05-07 18:18 51.72292 1.23404 19459 ft 357 kts 263°
2026-05-07 18:19 51.72035 1.19451 18971 ft 351 kts 263°
2026-05-07 18:19 51.71779 1.15564 18508 ft 345 kts 263°
2026-05-07 18:19 51.71521 1.11712 18301 ft 346 kts 263°
2026-05-07 18:20 51.71341 1.09049 18195 ft 345 kts 263°
2026-05-07 18:20 51.71079 1.05244 17971 ft 344 kts 263°
2026-05-07 18:20 51.70817 1.01423 17653 ft 342 kts 263°
2026-05-07 18:20 51.70557 0.97625 17297 ft 341 kts 263°
2026-05-07 18:21 51.70296 0.93821 17025 ft 340 kts 263°
2026-05-07 18:21 51.70033 0.90031 16730 ft 339 kts 263°
2026-05-07 18:21 51.69772 0.86258 16547 ft 336 kts 261°
2026-05-07 18:21 51.69511 0.82553 16738 ft 338 kts 262°
2026-05-07 18:22 51.69245 0.78759 16777 ft 339 kts 263°
2026-05-07 18:22 51.69072 0.76283 16579 ft 335 kts 263°
2026-05-07 18:22 51.68717 0.71249 15532 ft 341 kts 262°
2026-05-07 18:22 51.68445 0.67428 14663 ft 347 kts 262°
2026-05-07 18:23 51.68169 0.63543 13746 ft 348 kts 262°
2026-05-07 18:23 51.67893 0.59721 12936 ft 345 kts 262°
2026-05-07 18:23 51.67614 0.55890 12131 ft 343 kts 262°
2026-05-07 18:23 51.67337 0.52105 11500 ft 341 kts 262°
2026-05-07 18:24 51.67060 0.48296 11000 ft 335 kts 262°
2026-05-07 18:24 51.66791 0.44629 10717 ft 323 kts 262°
2026-05-07 18:24 51.66538 0.41159 10512 ft 309 kts 262°
2026-05-07 18:24 51.66292 0.37785 10336 ft 296 kts 262°
2026-05-07 18:25 51.66053 0.34557 10175 ft 283 kts 262°
2026-05-07 18:25 51.65826 0.31482 10033 ft 270 kts 262°
2026-05-07 18:25 51.65607 0.28545 9890 ft 258 kts 262°
2026-05-07 18:25 51.65396 0.25733 9678 ft 249 kts 262°
2026-05-07 18:26 51.65188 0.22978 9337 ft 246 kts 262°
2026-05-07 18:26 51.64982 0.20240 9089 ft 246 kts 262°
2026-05-07 18:26 51.64774 0.17494 9051 ft 247 kts 263°
2026-05-07 18:26 51.64567 0.14752 9060 ft 247 kts 263°
2026-05-07 18:27 51.64281 0.12070 9064 ft 247 kts 250°
2026-05-07 18:27 51.63378 0.09744 9067 ft 246 kts 226°
2026-05-07 18:27 51.62123 0.07864 9000 ft 247 kts 221°
2026-05-07 18:27 51.60828 0.06063 8854 ft 246 kts 221°
2026-05-07 18:28 51.59528 0.04274 8674 ft 245 kts 221°
2026-05-07 18:28 51.58257 0.02523 8481 ft 244 kts 221°
2026-05-07 18:28 51.56966 0.00741 8281 ft 243 kts 221°
2026-05-07 18:28 51.55699 -0.01008 8092 ft 243 kts 221°
2026-05-07 18:29 51.54451 -0.02829 8033 ft 243 kts 231°
2026-05-07 18:29 51.53715 -0.05238 8037 ft 243 kts 259°
2026-05-07 18:29 51.53730 -0.07944 8071 ft 244 kts 278°
2026-05-07 18:29 51.54032 -0.10626 8080 ft 244 kts 281°
2026-05-07 18:30 51.54363 -0.13293 8079 ft 244 kts 281°
2026-05-07 18:30 51.54699 -0.15961 8075 ft 244 kts 281°
2026-05-07 18:30 51.55038 -0.18648 8077 ft 244 kts 281°
2026-05-07 18:30 51.55374 -0.21311 8070 ft 243 kts 281°
2026-05-07 18:31 51.55704 -0.23949 8069 ft 244 kts 281°
2026-05-07 18:31 51.56038 -0.26617 8060 ft 244 kts 281°
2026-05-07 18:31 51.56373 -0.29295 8057 ft 244 kts 281°
2026-05-07 18:31 51.56708 -0.31970 8063 ft 244 kts 281°
2026-05-07 18:32 51.57044 -0.34647 8056 ft 243 kts 281°
2026-05-07 18:32 51.57374 -0.37284 8049 ft 244 kts 281°
2026-05-07 18:32 51.57708 -0.39954 8043 ft 244 kts 281°
2026-05-07 18:32 51.58041 -0.42629 8021 ft 244 kts 281°
2026-05-07 18:33 51.58374 -0.45305 7931 ft 243 kts 281°
2026-05-07 18:33 51.58705 -0.47951 7807 ft 243 kts 281°
2026-05-07 18:33 51.59037 -0.50603 7669 ft 242 kts 281°
2026-05-07 18:33 51.59370 -0.53261 7485 ft 242 kts 281°
2026-05-07 18:34 51.59702 -0.55902 7289 ft 241 kts 281°
2026-05-07 18:34 51.60034 -0.58536 7090 ft 240 kts 281°
2026-05-07 18:34 51.60369 -0.61177 6993 ft 240 kts 281°
2026-05-07 18:34 51.60701 -0.63809 6978 ft 241 kts 281°
2026-05-07 18:35 51.61034 -0.66443 6969 ft 240 kts 281°
2026-05-07 18:35 51.61317 -0.69094 6962 ft 241 kts 274°
2026-05-07 18:35 51.61265 -0.71765 6957 ft 238 kts 262°
2026-05-07 18:35 51.61036 -0.74392 6692 ft 235 kts 261°
2026-05-07 18:36 51.60790 -0.76988 6278 ft 234 kts 260°
2026-05-07 18:36 51.60547 -0.79548 5817 ft 234 kts 261°
2026-05-07 18:36 51.60111 -0.82048 5267 ft 232 kts 244°
2026-05-07 18:36 51.59389 -0.84344 4744 ft 231 kts 241°
2026-05-07 18:37 51.58624 -0.86634 4310 ft 232 kts 240°
2026-05-07 18:37 51.57864 -0.88915 4008 ft 232 kts 240°
2026-05-07 18:37 51.56850 -0.90887 3943 ft 227 kts 213°
2026-05-07 18:37 51.55477 -0.91708 4000 ft 197 kts 185°
2026-05-07 18:38 51.54172 -0.91804 4006 ft 184 kts 180°
2026-05-07 18:38 51.52912 -0.91865 3986 ft 186 kts 180°
2026-05-07 18:38 51.51618 -0.91925 3979 ft 186 kts 180°
2026-05-07 18:38 51.50328 -0.91986 3983 ft 185 kts 180°
2026-05-07 18:39 51.49094 -0.91542 3961 ft 185 kts 146°
2026-05-07 18:39 51.48338 -0.89894 3982 ft 186 kts 114°
2026-05-07 18:39 51.48000 -0.87918 3998 ft 186 kts 102°
2026-05-07 18:39 51.47831 -0.85852 3996 ft 186 kts 97°
2026-05-07 18:40 51.47756 -0.84065 4003 ft 187 kts 94°
2026-05-07 18:40 51.47711 -0.81983 3966 ft 186 kts 93°
2026-05-07 18:40 51.47664 -0.79895 3822 ft 186 kts 94°
2026-05-07 18:40 51.47655 -0.77819 3620 ft 185 kts 91°
2026-05-07 18:41 51.47656 -0.75789 3397 ft 184 kts 91°
2026-05-07 18:41 51.47663 -0.73736 3154 ft 183 kts 91°
2026-05-07 18:41 51.47670 -0.71699 2921 ft 179 kts 90°
2026-05-07 18:41 51.47676 -0.69750 2725 ft 171 kts 91°
2026-05-07 18:42 51.47683 -0.67917 2501 ft 160 kts 91°
2026-05-07 18:42 51.47689 -0.66156 2276 ft 159 kts 91°
2026-05-07 18:42 51.47695 -0.64376 2043 ft 159 kts 92°
2026-05-07 18:42 51.47700 -0.63204 1888 ft 158 kts 92°
2026-05-07 18:43 51.47707 -0.61363 1659 ft 158 kts 91°
2026-05-07 18:43 51.47713 -0.59648 1449 ft 144 kts 92°
2026-05-07 18:43 51.47718 -0.58160 1254 ft 129 kts 92°
2026-05-07 18:44 51.47723 -0.56721 1100 ft 129 kts 92°
2026-05-07 18:44 51.47728 -0.55290 938 ft 128 kts 92°
2026-05-07 18:44 51.47733 -0.54040 785 ft 129 kts 92°
2026-05-07 18:44 51.47738 -0.52611 618 ft 128 kts 92°
2026-05-07 18:45 51.47742 -0.51185 450 ft 128 kts 92°
2026-05-07 18:45 51.47746 -0.49756 274 ft 128 kts 92°
2026-05-07 18:45 51.47746 -0.48333 109 ft 127 kts 91°
2026-05-07 18:45 51.47752 -0.47064 94 ft 85 kts 90°
2026-05-07 18:46 51.47756 -0.46543 98 ft 30 kts 89°
2026-05-07 18:46 51.47757 -0.46199 93 ft 32 kts 90°
2026-05-07 18:46 51.47758 -0.45833 88 ft 33 kts 90°
2026-05-07 18:46 51.47752 -0.45527 90 ft 15 kts 116°
2026-05-07 18:47 51.47658 -0.45469 90 ft 7 kts 179°
2026-05-07 18:47 51.47614 -0.45464 91 ft 9 kts 157°
2026-05-07 18:47 51.47599 -0.45385 92 ft 4 kts 92°
2026-05-07 18:47 51.47598 -0.45326 92 ft 7 kts 91°
2026-05-07 18:48 51.47598 -0.45292 93 ft 0 kts 90°
2026-05-07 18:49 51.47598 -0.45283 93 ft 3 kts 91°
2026-05-07 18:49 51.47597 -0.45207 93 ft 10 kts 90°
2026-05-07 18:49 51.47598 -0.45079 93 ft 13 kts 89°
2026-05-07 18:50 51.47599 -0.44918 94 ft 16 kts 89°
2026-05-07 18:50 51.47600 -0.44766 94 ft 11 kts 89°
2026-05-07 18:50 51.47574 -0.44665 92 ft 11 kts 161°
2026-05-07 18:50 51.47550 -0.44664 90 ft 3 kts 173°
2026-05-07 18:51 51.47517 -0.44639 90 ft 7 kts 140°
2026-05-07 18:51 51.47477 -0.44569 90 ft 10 kts 156°
2026-05-07 18:51 51.47396 -0.44557 90 ft 13 kts 180°
2026-05-07 18:51 51.47296 -0.44557 90 ft 16 kts 179°
2026-05-07 18:52 51.47093 -0.44557 91 ft 40 kts 179°
2026-05-07 18:52 51.46998 -0.44555 91 ft 0 kts 172°
2026-05-07 18:52 51.46959 -0.44554 91 ft 0 kts 178°
2026-05-07 18:52 51.46956 -0.44688 91 ft 0 kts 265°
2026-05-07 18:53 51.46955 -0.44706 90 ft 43 kts 265°
2026-05-07 18:53 51.46957 -0.44672 91 ft 0 kts 265°
2026-05-07 18:54 51.46954 -0.44728 91 ft 0 kts 265°
2026-05-07 18:57 51.46938 -0.44727 91 ft 0 kts 269°